Weather in Suwayq

Oman     23°51′06″N   57°26′23″E
temp.,
°C
wind,
m/s
gust,
m/s
humid.,
%
clouds,
%
prec.,
mm/h
press.,
hPa
HPBL,
m
13 august, sat
sat1301:00+34nne3345100 0.0 99434
04:00+33n234997 0.0 99318
07:00+32nne3463100 0.0 996293
10:00+35nnw1147100 0.0 997914
13:00+38ne5334100 0.0 9951358
16:00+36ene7747100 0.0 995595
19:00+34e5656100 0.0 995364
22:00+36sw3345100 0.0 995242
14 august, sun
sun1401:00+32ne6870100 0.0 995235
04:00+32wsw3464100 0.0 995181
07:00+33nw4562100 0.0 997245
10:00+35nnw555092 0.0 998878
13:00+37n544343 0.0 997986
16:00+36n6544100 0.0 996721
19:00+33ene215562 0.0 997296
22:00+35e1145100 0.0 997185
15 august, mon
mon1501:00+34ne334838 0.0 99756
04:00+34w35426 0.0 996111
07:00+34nne334622 0.0 998152
10:00+38nnw34355 0.0 999934
13:00+39nne65355 0.0 998986
16:00+38nne34335 0.0 997821
19:00+38e3331100 0.0 997209
22:00+35ene344554 0.0 998107
16 august, tue
tue1601:00+35ene1145100 0.0 99783
04:00+33ne4455100 0.0 998183
07:00+33ese015299 0.0 1000153
10:00+36nne3240100 0.0 1000716
13:00+36ene544699 0.0 999672
16:00+33e6657100 0.0 999486
19:00+34e3447100 0.0 1000392
22:00+33e81151100 0.0 1002450
17 august, wed
wed1701:00+35sw7934100 0.0 998162
04:00+35ese3438100 0.0 99755
07:00+32ne346699 0.0 1000292
10:00+35nnw2250100 0.0 1000641
13:00+34ne5553100 0.0 999423
16:00+36e3339100 0.0 998501
19:00+37ese1237100 0.0 99819
22:00+36wnw1237100 0.0 99935